User: anonymous   Login
Location: Unspecified
(0.0000°N, 0.0000°E)
Time: 20:42:25
(UTC+02:00)
Language:

GPS 2-12 Rocket1 - Orbit

View from above orbital plane
View from above orbital plane
View from above satellite
View from above satellite

Ground track
Ground track

The orbit data is extracted from the following two-line orbital elements,

1 21891U 92009B   16239.94016559  .00000660  00000-0  30492-4 0  9995
2 21891  19.9967  84.3917 0047425  48.8775 311.5726 14.82701651322532
Epoch (UTC): 26 August 2016 22:33:50
Eccentricity: 0.0047425
inclination: 19.9967°
perigee height: 587 km
apogee height: 654 km
right ascension of ascending node: 84.3917°
argument of perigee: 48.8775°
revolutions per day: 14.82701651
mean anomaly at epoch: 311.5726°
orbit number at epoch: 32253

The dashed part of the orbit path shows where the satellite is in the earth's shadow,  

DLR